Hourly Weather Roundup
Issued by NWS Central Illinois

Home | Current Version | Previous Version | Graphics & Text | Print | Product List | Glossary On
Versions: 1 2 3 4 5 6 7 8 9 10 11 12 13 14 15 16 17 18 19 20 21 22 23 24 25 26 27 28 29 30 31 32 33 34 35 36 37 38 39 40 41 42 43 44 45 46 47 48 49 50
000
NZUS43 KILX 292310
HWRILX

AREA WEATHER ROUNDUP
NATIONAL WEATHER SERVICE, LINCOLN IL
600 PM CDT SUN MAY 29 2016


CITY           SKY/WX    TMP DP  RH WIND       PRES   REMARKS
BLOOMINGTON    MOSUNNY   81  59  47 W13       30.05F HX  81
CHAMPAIGN      MOSUNNY   83  51  33 W12G23    30.03F HX  81
DANVILLE       SUNNY     82  55  39 W9G20     30.00S HX  82
DECATUR        SUNNY     83  52  34 W12G21    30.03F HX  82
EFFINGHAM      CLOUDY    84  62  47 W8        30.05F HX  85
FLORA          SUNNY     83  61  46 NW5       30.04F HX  84
GALESBURG      MOSUNNY   80  55  42 W13       30.03F HX  80
JACKSONVILLE   SUNNY     83  55  36 W13       30.04F HX  82
LACON          MOSUNNY   82  54  38 W8        30.00F HX  81
LAWRENCEVILLE  SUNNY     85  58  39 NW13      30.03S HX  84
LITCHFIELD     MOSUNNY   83  56  39 NW12      30.05S HX  82
$$


CITY           SKY/WX    TMP DP  RH WIND       PRES   REMARKS
LINCOLN        SUNNY     83  60  45 W7        30.03F HX  83
MACOMB         SUNNY     82  54  38 W10       30.05F HX  81
MATTOON        CLOUDY    82  53  36 NW14      30.02F HX  81
MT CARMEL AP   SUNNY     85  55  34 W12       30.03F HX  84
OLNEY-NOBLE AP MOSUNNY   81  61  50 NW7       30.04F HX  81
PARIS          MOSUNNY   84  56  38 W7        30.02F HX  83
PEORIA         MOSUNNY   82  53  36 W12G22    30.03S HX  81
PONTIAC        SUNNY     83  55  38 W15       30.01F HX  82
RANTOUL        MOSUNNY   83  58  42 NW10      30.02F HX  83
ROBINSON       MOSUNNY   82  59  45 W8        30.04S HX  82
SPRINGFIELD    SUNNY     85  54  34 NW10      30.04F HX  83
TAYLORVILLE    SUNNY     83  56  39 W8        30.03F HX  82
$$

...REGIONAL REPORTS...


CITY           SKY/WX    TMP DP  RH WIND       PRES   REMARKS
CHICAGO O`HARE MOSUNNY   77  58  51 W13G23    29.97F
KANKAKEE       SUNNY     82  53  36 W14       30.00F HX  81
MOLINE         SUNNY     82  57  42 W9        30.00F HX  82
MOUNT STERLING SUNNY     82  56  41 W7        30.04F HX  81
MOUNT VERNON   MOSUNNY   79  64  61 CALM      30.06S HX  81
PITTSFIELD     MOSUNNY   82  60  47 W5        30.06F HX  83
QUINCY         SUNNY     83  58  42 W8        30.04F HX  83
ROCKFORD       MOSUNNY   79  57  46 W13G20    30.01S HX  80
$$


CITY           SKY/WX    TMP DP  RH WIND       PRES   REMARKS
BURLINGTON     SUNNY     81  55  40 W8        30.02F HX  81
CEDAR RAPIDS   MOSUNNY   78  59  51 W10       30.00F
DES MOINES     MOSUNNY   83  52  34 W8        30.00F HX  82
KIRKSVILLE     MOSUNNY   82  62  50 W5        30.05F HX  83
OTTUMWA        SUNNY     81  56  42 W5        30.01F HX  81
ST LOUIS       MOSUNNY   85  56  37 NW9       30.05F HX  84
$$


CITY           SKY/WX    TMP DP  RH WIND       PRES   REMARKS
TERRE HAUTE    MOSUNNY   83  57  41 W9        30.02F HX  82
EVANSVILLE     MOSUNNY   81  66  60 NE5       30.03S HX  83
INDIANAPOLIS   PTSUNNY   82  57  42 W10       30.00S HX  82
LAFAYETTE      SUNNY     82  53  36 W14G20    30.00S HX  81
MADISON        PTSUNNY   75  56  51 VRB7      29.96R
MILWAUKEE      MOSUNNY   80  55  42 W15G21    29.94S HX  80
$$






USA.gov is the U.S. government's official web portal to all federal, state and local government web resources and services.